Change the Weather History Date:

Friday, February 22, 2013

  Actual Average (KHOT) Record (KHOT)
Temperature  
Mean Temperature 36 °F -  
Max Temperature 43 °F 60 °F 79 °F (1980)
Min Temperature 28 °F 35 °F 11 °F (1968)
Degree Days  
Heating Degree Days 28    
Moisture  
Dew Point 30 °F    
Average Humidity 84    
Maximum Humidity 100    
Minimum Humidity 58    
Precipitation  
Precipitation 0.00 in - - ()
Sea Level Pressure  
Sea Level Pressure 30.02 in    
Wind  
Wind Speed 1 mph (NNW)    
Max Wind Speed 10 mph    
Max Gust Speed 16 mph    
Visibility 8 miles    
Events      
Averages and records for this station are not official NWS values.
T = Trace of Precipitation, MM = Missing Value Source: NWS Daily Summary

Daily Weather History Graph

Daily Weather History Graph

Search for Another Location

Airport or City:

Trip Planner

Search our weather history database for the weather conditions in past years. The results will help you decide how hot, cold, wet, or windy it might be!

Date:

Astronomy

Feb. 22, 2013 Rise Set
Actual Time 6:51 AM CST 6:04 PM CST
Civil Twilight 6:26 AM CST 6:29 PM CST
Nautical Twilight 5:56 AM CST 6:59 PM CST
Astronomical Twilight 5:27 AM CST 7:28 PM CST
Moon 3:21 PM CST (2/22) 4:31 AM CST (2/22)
Length of Visible Light 12h 03m
Length of Day
11h 12m
Waxing Gibbous, 90% of the Moon is Illuminated
Feb 22
Waxing Gibbous
Feb 25
Full
Mar 4
Last Quarter
Mar 11
New
Mar 19
First Quarter

Hourly Weather History & Observations

Time (CST) Temp. Windchill Dew Point Humidity Pressure Visibility Wind Dir Wind Speed Gust Speed Precip Events Conditions
12:53 AM 32.0 °F - 32.0 °F 100% 29.93 in 1.0 mi Calm Calm - N/A   Mist
1:13 AM 33.8 °F - 33.8 °F 100% 29.90 in 3.0 mi Calm Calm - N/A   Overcast
1:27 AM 33.8 °F - 33.8 °F 100% 29.90 in 7.0 mi Calm Calm - N/A   Overcast
1:53 AM 33.1 °F - 33.1 °F 100% 29.94 in 7.0 mi Calm Calm - N/A   Overcast
2:25 AM 33.8 °F - 33.8 °F 100% 29.90 in 9.0 mi Calm Calm - N/A   Overcast
2:53 AM 33.1 °F - 33.1 °F 100% 29.93 in 8.0 mi Calm Calm - N/A   Overcast
3:53 AM 34.0 °F - 34.0 °F 100% 29.94 in 4.0 mi Calm Calm - N/A   Overcast
4:43 AM 33.8 °F - 32.0 °F 93% 29.95 in 9.0 mi Calm Calm - N/A   Scattered Clouds
4:53 AM 33.1 °F - 32.0 °F 96% 29.98 in 8.0 mi Calm Calm - N/A   Clear
5:23 AM 33.8 °F - 32.0 °F 93% 29.96 in 5.0 mi Calm Calm - N/A   Mostly Cloudy
5:40 AM 33.8 °F 30.8 °F 32.0 °F 93% 29.96 in 5.0 mi NNW 3.5 mph - N/A   Mostly Cloudy
5:53 AM 33.1 °F - 32.0 °F 96% 29.99 in 6.0 mi Calm Calm - N/A   Mostly Cloudy
6:02 AM 32.0 °F - 30.2 °F 93% 29.96 in 6.0 mi Calm Calm - N/A   Scattered Clouds
6:24 AM 32.0 °F - 30.2 °F 93% 29.97 in 10.0 mi Calm Calm - N/A   Mostly Cloudy
6:53 AM 32.0 °F - 30.9 °F 96% 30.04 in 10.0 mi Calm Calm - N/A   Mostly Cloudy
7:31 AM 32.0 °F 28.7 °F 28.4 °F 87% 30.02 in 10.0 mi NNW 3.5 mph - N/A   Scattered Clouds
7:53 AM 32.0 °F 26.4 °F 28.0 °F 85% 30.07 in 10.0 mi NW 5.8 mph - N/A   Clear
8:53 AM 34.0 °F 28.8 °F 28.0 °F 79% 30.10 in 10.0 mi Variable 5.8 mph - N/A   Clear
9:53 AM 35.1 °F 31.0 °F 24.1 °F 64% 30.11 in 10.0 mi Variable 4.6 mph - N/A   Clear
10:53 AM 37.9 °F 33.5 °F 26.1 °F 62% 30.11 in 10.0 mi Variable 5.8 mph - N/A   Clear
11:53 AM 39.0 °F 35.7 °F 27.0 °F 62% 30.10 in 10.0 mi North 4.6 mph - N/A   Clear
12:53 PM 41.0 °F 37.1 °F 28.9 °F 62% 30.07 in 10.0 mi NNW 5.8 mph 16.1 mph N/A   Clear
1:53 PM 42.1 °F 36.1 °F 28.9 °F 60% 30.05 in 10.0 mi NNW 10.4 mph - N/A   Clear
2:53 PM 43.0 °F 39.5 °F 28.9 °F 58% 30.03 in 10.0 mi NNW 5.8 mph - N/A   Clear
3:53 PM 43.0 °F 38.8 °F 30.0 °F 60% 30.03 in 10.0 mi NNW 6.9 mph - N/A   Clear
4:53 PM 42.1 °F 38.4 °F 28.0 °F 58% 30.02 in 10.0 mi North 5.8 mph - N/A   Clear
5:53 PM 39.0 °F - 27.0 °F 62% 30.05 in 10.0 mi Calm Calm - N/A   Clear
6:53 PM 36.0 °F - 28.0 °F 73% 30.08 in 10.0 mi Calm Calm - N/A   Clear
7:53 PM 33.1 °F - 28.0 °F 82% 30.09 in 10.0 mi Calm Calm - N/A   Clear
8:53 PM 32.0 °F - 28.9 °F 88% 30.11 in 10.0 mi Calm Calm - N/A   Clear
9:53 PM 30.0 °F - 28.0 °F 92% 30.12 in 10.0 mi Calm Calm - N/A   Clear
10:53 PM 30.0 °F - 28.0 °F 92% 30.10 in 10.0 mi Calm Calm - N/A   Clear
11:53 PM 28.9 °F - 27.0 °F 92% 30.09 in 10.0 mi Calm Calm - N/A   Clear